Clermont County, Batavia, OH

4:41 PM EDT on May 29, 2017 (GMT -0400)
Clermont County, Batavia

Weather History for KI69 - January, 2014

Change the Weather History Date:

Saturday, January 25, 2014

  Actual Average (KLUK) Record (KLUK)
Temperature  
Mean Temperature 25 °F -  
Max Temperature 35 °F 41 °F 74 °F (1950)
Min Temperature 15 °F 23 °F -6 °F (1961)
Degree Days  
Heating Degree Days 40    
Moisture  
Dew Point 16 °F    
Average Humidity 69    
Maximum Humidity 93    
Minimum Humidity 37    
Precipitation  
Precipitation 0.00 in - - ()
Sea Level Pressure  
Sea Level Pressure 29.68 in    
Wind  
Wind Speed 17 mph (West)    
Max Wind Speed 24 mph    
Max Gust Speed 36 mph    
Visibility 6 miles    
Events Rain , Snow    
Averages and records for this station are not official NWS values.
T = Trace of Precipitation, MM = Missing Value Source: NWS Daily Summary

Daily Weather History Graph

Daily Weather History Graph

Search for Another Location

Airport or City:

Trip Planner

Search our weather history database for the weather conditions in past years. The results will help you decide how hot, cold, wet, or windy it might be!

Date:

Astronomy

Jan. 25, 2014 Rise Set
Actual Time 7:49 AM EST 5:49 PM EST
Civil Twilight 7:20 AM EST 6:18 PM EST
Nautical Twilight 6:48 AM EST 6:50 PM EST
Astronomical Twilight 6:16 AM EST 7:22 PM EST
Moon 2:20 AM EST (1/25) 12:49 PM EST (1/25)
Length of Visible Light 10h 58m
Length of Day
10h 00m
Waning Crescent, 34% of the Moon is Illuminated
Jan 25
Waning Crescent
Jan 30
New
Feb 6
First Quarter
Feb 14
Full
Feb 22
Last Quarter

Hourly Weather History & Observations

Time (EST) Temp. Windchill Dew Point Humidity Pressure Visibility Wind Dir Wind Speed Gust Speed Precip Events Conditions
12:15 AM 26.6 °F 13.1 °F 3.2 °F 37% 29.84 in 10.0 mi SW 19.6 mph 26.5 mph N/A   Overcast
12:34 AM 26.6 °F 13.4 °F 3.2 °F 37% 29.83 in 10.0 mi SW 18.4 mph 33.4 mph N/A   Overcast
12:54 AM 26.6 °F 12.7 °F 3.2 °F 37% 29.82 in 10.0 mi WSW 20.7 mph 31.1 mph N/A   Overcast
1:15 AM 24.8 °F 10.0 °F 6.8 °F 46% 29.81 in 7.0 mi SW 21.9 mph 35.7 mph N/A Snow Light Snow
1:34 AM 23.0 °F 8.0 °F 12.2 °F 63% 29.80 in 3.0 mi WSW 20.7 mph 31.1 mph N/A Snow Light Snow
1:54 AM 23.0 °F 9.2 °F 15.8 °F 74% 29.79 in 1.8 mi SW 17.3 mph 29.9 mph N/A Snow Light Snow
2:15 AM 23.0 °F 10.6 °F 17.6 °F 80% 29.78 in 1.5 mi SW 13.8 mph 25.3 mph N/A Snow Light Snow
2:34 AM 23.0 °F 11.1 °F 17.6 °F 80% 29.76 in 1.2 mi SW 12.7 mph 23.0 mph N/A Snow Light Snow
2:54 AM 23.0 °F 11.1 °F 19.4 °F 86% 29.74 in 2.0 mi SW 12.7 mph 21.9 mph N/A Snow Light Snow
3:14 AM 23.0 °F 10.6 °F 19.4 °F 86% 29.73 in 1.5 mi SW 13.8 mph 25.3 mph N/A Snow Light Snow
3:34 AM 23.0 °F 10.1 °F 19.4 °F 86% 29.71 in 1.2 mi SSW 15.0 mph 20.7 mph N/A Snow Light Snow
3:54 AM 23.0 °F 11.1 °F 19.4 °F 86% 29.70 in 1.5 mi SW 12.7 mph 21.9 mph N/A Snow Light Snow
4:14 AM 23.0 °F 10.6 °F 19.4 °F 86% 29.68 in 1.0 mi SSW 13.8 mph 23.0 mph N/A Snow Light Snow
4:34 AM 23.0 °F 11.7 °F 19.4 °F 86% 29.66 in 1.5 mi SW 11.5 mph 26.5 mph N/A Snow Light Snow
4:54 AM 23.0 °F 10.1 °F 19.4 °F 86% 29.66 in 1.5 mi SW 15.0 mph 19.6 mph N/A Snow Light Snow
5:14 AM 23.0 °F 8.7 °F 19.4 °F 86% 29.63 in 1.2 mi SW 18.4 mph 24.2 mph N/A Snow Light Snow
5:34 AM 23.0 °F 10.6 °F 19.4 °F 86% 29.63 in 2.0 mi SW 13.8 mph 25.3 mph N/A Snow Light Snow
5:54 AM 23.0 °F 12.4 °F 19.4 °F 86% 29.63 in 2.0 mi SW 10.4 mph 19.6 mph N/A Snow Light Snow
6:14 AM 23.0 °F 13.1 °F 21.2 °F 93% 29.63 in 1.2 mi SW 9.2 mph 20.7 mph N/A Snow Light Snow
6:34 AM 23.0 °F 11.7 °F 21.2 °F 93% 29.62 in 1.2 mi SW 11.5 mph 20.7 mph N/A Snow Light Snow
6:54 AM 23.0 °F 11.7 °F 21.2 °F 93% 29.61 in 1.0 mi SW 11.5 mph 17.3 mph N/A Snow Light Snow
7:14 AM 23.0 °F 12.4 °F 21.2 °F 93% 29.60 in 1.0 mi SW 10.4 mph 19.6 mph N/A Snow Light Snow
7:34 AM 23.0 °F 12.4 °F 21.2 °F 93% 29.60 in 3.0 mi SW 10.4 mph 18.4 mph N/A Snow Light Snow
7:54 AM 24.8 °F 15.3 °F 21.2 °F 86% 29.59 in 1.5 mi SW 9.2 mph 19.6 mph N/A Snow Light Snow
8:14 AM 24.8 °F 14.6 °F 21.2 °F 86% 29.58 in 0.5 mi SW 10.4 mph 21.9 mph N/A Snow Light Snow
8:34 AM 24.8 °F 12.9 °F 21.2 °F 86% 29.58 in 1.0 mi SW 13.8 mph 21.9 mph N/A Snow Light Snow
8:54 AM 24.8 °F 12.4 °F 23.0 °F 93% 29.57 in 1.0 mi SW 15.0 mph 25.3 mph N/A Snow Light Snow
9:14 AM 26.6 °F 12.4 °F 23.0 °F 86% 29.57 in 1.0 mi WSW 21.9 mph 33.4 mph N/A Snow Light Snow
9:34 AM 26.6 °F 13.1 °F 23.0 °F 86% 29.57 in 2.5 mi WSW 19.6 mph 27.6 mph N/A Snow Light Snow
9:54 AM 26.6 °F 12.7 °F 23.0 °F 86% 29.56 in 3.0 mi WSW 20.7 mph 25.3 mph N/A Snow Light Snow
10:14 AM 26.6 °F 13.4 °F 23.0 °F 86% 29.56 in 4.0 mi WSW 18.4 mph 25.3 mph N/A   Overcast
10:34 AM 28.4 °F 16.2 °F 23.0 °F 80% 29.55 in 5.0 mi WSW 17.3 mph 26.5 mph N/A   Overcast
10:54 AM 28.4 °F 15.1 °F 24.8 °F 86% 29.55 in 4.0 mi WSW 20.7 mph 27.6 mph N/A   Overcast
11:15 AM 30.2 °F 18.1 °F 24.8 °F 80% 29.55 in 7.0 mi WSW 18.4 mph 26.5 mph N/A   Overcast
11:34 AM 30.2 °F 18.9 °F 26.6 °F 86% 29.55 in 5.0 mi WSW 16.1 mph 31.1 mph N/A   Haze
11:54 AM 32.0 °F 20.5 °F 26.6 °F 80% 29.55 in 7.0 mi WSW 18.4 mph 25.3 mph N/A   Overcast
12:15 PM 32.0 °F 20.5 °F 26.6 °F 80% 29.54 in 7.0 mi WSW 18.4 mph 26.5 mph N/A   Overcast
12:34 PM 32.0 °F 20.8 °F 26.6 °F 80% 29.53 in 5.0 mi West 17.3 mph 28.8 mph N/A   Haze
12:54 PM 33.8 °F 22.8 °F 26.6 °F 75% 29.52 in 10.0 mi West 18.4 mph 25.3 mph N/A   Overcast
1:15 PM 35.6 °F 24.5 °F 24.8 °F 65% 29.51 in 7.0 mi West 20.7 mph 27.6 mph N/A   Overcast
1:34 PM 33.8 °F 23.9 °F 21.2 °F 60% 29.52 in 7.0 mi West 15.0 mph 34.5 mph N/A Rain Light Rain
1:54 PM 33.8 °F 22.5 °F 26.6 °F 75% 29.51 in 5.0 mi West 19.6 mph 31.1 mph N/A   Haze
2:15 PM 35.6 °F 25.9 °F 26.6 °F 70% 29.50 in 10.0 mi West 16.1 mph 25.3 mph N/A   Mostly Cloudy
2:34 PM 33.8 °F 23.2 °F 26.6 °F 75% 29.51 in 7.0 mi NW 17.3 mph 29.9 mph N/A   Overcast
2:54 PM 32.0 °F 18.9 °F 28.4 °F 87% 29.53 in 1.2 mi WNW 24.2 mph 32.2 mph N/A Snow Light Snow
3:15 PM 32.0 °F 19.5 °F 23.0 °F 69% 29.54 in 10.0 mi WNW 21.9 mph 29.9 mph N/A   Scattered Clouds
3:34 PM 32.0 °F 19.5 °F 14.0 °F 48% 29.55 in 10.0 mi WNW 21.9 mph 32.2 mph N/A   Mostly Cloudy
3:54 PM 32.0 °F 19.2 °F 12.2 °F 44% 29.57 in 10.0 mi WNW 23.0 mph 32.2 mph N/A   Scattered Clouds
4:15 PM 32.0 °F 20.8 °F 12.2 °F 44% 29.60 in 10.0 mi NW 17.3 mph 33.4 mph N/A   Clear
4:34 PM 30.2 °F 17.8 °F 12.2 °F 47% 29.63 in 5.0 mi NNW 19.6 mph 33.4 mph N/A   Haze
4:54 PM 28.4 °F 16.6 °F 12.2 °F 51% 29.66 in 10.0 mi WNW 16.1 mph 26.5 mph N/A   Mostly Cloudy
5:14 PM 28.4 °F 15.4 °F 12.2 °F 51% 29.68 in 7.0 mi NW 19.6 mph 32.2 mph N/A   Mostly Cloudy
5:34 PM 26.6 °F 12.4 °F 8.6 °F 47% 29.70 in 7.0 mi WNW 21.9 mph 32.2 mph N/A   Scattered Clouds
5:54 PM 26.6 °F 14.7 °F 8.6 °F 47% 29.72 in 10.0 mi NW 15.0 mph 21.9 mph N/A   Clear
6:14 PM 24.8 °F 12.4 °F 6.8 °F 46% 29.75 in 10.0 mi NW 15.0 mph 26.5 mph N/A   Clear
6:34 PM 23.0 °F 7.2 °F 8.6 °F 54% 29.77 in 10.0 mi WNW 23.0 mph 31.1 mph N/A   Clear
6:54 PM 23.0 °F 8.7 °F 8.6 °F 54% 29.78 in 10.0 mi WNW 18.4 mph 25.3 mph N/A   Clear
7:14 PM 23.0 °F 9.2 °F 6.8 °F 50% 29.80 in 10.0 mi WNW 17.3 mph 29.9 mph N/A   Clear
7:34 PM 21.2 °F 6.0 °F 6.8 °F 54% 29.82 in 10.0 mi NW 19.6 mph 26.5 mph N/A   Clear
7:54 PM 21.2 °F 7.3 °F 6.8 °F 54% 29.83 in 10.0 mi WNW 16.1 mph 27.6 mph N/A   Clear
8:14 PM 21.2 °F 5.2 °F 6.8 °F 54% 29.84 in 10.0 mi NW 21.9 mph 34.5 mph N/A   Clear
8:34 PM 19.4 °F 4.5 °F 5.0 °F 54% 29.85 in 10.0 mi WNW 17.3 mph 26.5 mph N/A   Clear
8:54 PM 19.4 °F 6.6 °F 5.0 °F 54% 29.86 in 10.0 mi WNW 12.7 mph 21.9 mph N/A   Clear
9:14 PM 19.4 °F 8.6 °F 5.0 °F 54% 29.87 in 10.0 mi WNW 9.2 mph 23.0 mph N/A   Clear
9:34 PM 19.4 °F 6.0 °F 5.0 °F 54% 29.88 in 10.0 mi West 13.8 mph 20.7 mph N/A   Clear
9:55 PM 17.6 °F 5.7 °F 3.2 °F 53% 29.88 in 10.0 mi WNW 10.4 mph 16.1 mph N/A   Clear
10:14 PM 17.6 °F 6.4 °F 3.2 °F 53% 29.90 in 10.0 mi West 9.2 mph 19.6 mph N/A   Clear
10:34 PM 17.6 °F 5.0 °F 3.2 °F 53% 29.91 in 10.0 mi West 11.5 mph - N/A   Clear
10:54 PM 17.6 °F 3.7 °F 3.2 °F 53% 29.91 in 10.0 mi WNW 13.8 mph 20.7 mph N/A   Clear
11:14 PM 17.6 °F 5.0 °F 3.2 °F 53% 29.91 in 10.0 mi WNW 11.5 mph 18.4 mph N/A   Clear
11:34 PM 15.8 °F 3.4 °F 3.2 °F 58% 29.90 in 10.0 mi WNW 10.4 mph 16.1 mph N/A   Clear
11:54 PM 15.8 °F 4.2 °F 1.4 °F 53% 29.90 in 10.0 mi West 9.2 mph - N/A   Clear